NOAA 16 DEB, 41655

Orbit data source: Space-Track

NOAA 16 DEB, 41655 is space debris in SSO originally from a launch on Thu, 21 Sep 2000 UTC launched from the Air Force Western Test Range (AFWTR). Debris objects in space refer to the collection of defunct objects orbiting the Earth. Examples of debris include non-operational satellites, rocket bodies, and fragments generated from explosions, collisions, or faulty payload assembly.

Loading next visibility...
Identifier
41655, 2000-055NU
Orbit
SSO
Country
Flag of USUS
Related business
Manufacturer
Unknown
Mission
Spacecraft
Bus & Motor
Unknown
Mass
Unknown
Launch date (UTC)
2000-09-21 (25 years ago)
Launch vehicle
Unknown
Launch site
Air Force Western Test Range (AFWTR)
Object type
Payload
Rocket body
Debris
Shape & HBR
Unknown
Radar Cross Section
Small (<0.1 m²)

Expand to show TLE details & history
Last TLE update: 2 days ago

TLE from 2 days ago
0 NOAA 16 DEB
1 41655U 00055NU  25257.99431684  .00003777  00000-0  13541-2 0  9996
2 41655  98.7223 353.8578 0018536 223.2153 136.7578 14.34440795487843
Epoch: 2025-09-14T23:51Z
TLE epoch observation values (Epoch: 2025-09-14T23:51:48.974Z)
Latitude
-0.00003°
Longitude
1.6984°
Altitude
789.534 km
Speed
7.454 km/s
True Right ascension
23h 35m 25s
True Declination
0° 00' 00"
Sunlit
Object was in full shadow at epoch
Visualization orbit readout
Latitude
Unknown
Longitude
Unknown
Altitude
Unknown
Speed
Unknown
Apparent Right ascension
Unknown
Apparent Declination
Unknown
Sunlit
N/A
Visualization observer readout
Local Sidereal Time
10:41:02
Azimuth
Unknown
Elevation
Unknown
Doppler factor
Unknown
Orbital elements
Apogee altitude
787.323 km
Perigee altitude
760.808 km
Semi-major axis
7,152.202 km
Eccentricity
0.00185
Inclination
98.7223°
RAAN
353.8578°
Arg. of periapsis
223.2153°
True anomaly
136.90307°
Mean anomaly
136.7578°
Eccentric anomaly
136.83046°
Mean motion
3.58826 °/min
Orbital period
100.33 mins
BSTAR
0.0013541
Loading maneuver chart data...
Computing Atmospheric mass density...
Loading historical data...
Loading historical data...
Loading historical data...
Loading historical data...
Loading historical data...
Loading historical data...
Loading historical data...

Documentation

Showing up to 5 results
|